{"data":{"norad_id":58907,"intl_designator":"2024-023C","name":"GEESAT-2 03","alt_names":[],"object_type":"PAYLOAD","status":"ACTIVE","operator":null,"country":"PRC","launch_date":"2024-02-02","launch_site_code":"XICLF","launch_vehicle":null,"mission":null,"orbit_class":"UNKNOWN","rcs_meters":null,"size_class":null,"mass_kg":null,"dimensions":null,"purposes":[],"wikipedia_slug":null,"has_3d_model":false,"image_url":null,"decayed_at":null,"tle_current":{"epoch":"2026-05-25T03:37:37.525728Z","epoch_age_seconds":58027,"freshness":"FRESH","line1":"1 58907U 24023C   26145.15112877  .00002047  00000+0  19795-3 0  9996","line2":"2 58907  50.0010  73.2680 0006310 306.9802  53.0564 14.96957039125870","mean_motion":14.96957039,"eccentricity":0.000631,"inclination_deg":50.001,"raan_deg":73.268,"arg_perigee_deg":306.9802,"mean_anomaly_deg":53.0564,"bstar":0.00019795,"rev_number":12587,"period_min":96.195145383862,"perigee_km":571.91665147777,"apogee_km":580.69315716102,"semimajor_km":6954.4419043194,"source":"CELESTRAK","updated_at":"2026-05-25T13:38:01.048169Z"}}}